Location: Ústí nad Labem
(50.6611°N, 14.0531°E)
Time: 22:41:17
(UTC+02:00)

Vanguard 2 Rocket - Visible Passes

Search period start: 12 April 2024 00:00
Search period end: 22 April 2024 00:00
Orbit: 555 x 3307 km, 32.9° (Epoch: 11 April)

Date Brightness Start Highest point End Pass type
(mag) Time Alt. Az. Time Alt. Az. Time Alt. Az.
12 Apr 10.0 00:42:57 27° SE 00:42:57 27° SE 00:50:22 10° ESE visible
12 Apr 9.4 02:48:26 36° SSW 02:52:02 39° S 03:03:51 10° ESE visible
12 Apr 9.4 04:53:56 13° WSW 05:05:53 31° SSW 05:14:54 10° SSE visible
12 Apr 10.3 23:18:59 10° SSW 23:43:19 18° ESE 23:47:11 10° ESE visible
13 Apr 9.5 01:48:48 39° S 01:48:48 39° S 02:01:57 10° ESE visible
13 Apr 9.4 03:54:16 23° WSW 04:03:23 37° SSW 04:14:02 10° SE visible
13 Apr 10.3 22:17:59 10° S 22:43:31 - E 22:24:32 18° SSE visible
14 Apr 9.7 00:28:16 10° SW 00:48:59 34° SE 00:59:34 10° ESE visible
14 Apr 9.4 02:54:26 33° SW 03:00:25 40° S 03:12:41 10° ESE visible
14 Apr 9.5 05:01:07 10° W 05:14:06 28° SSW 05:23:11 10° SSE visible
14 Apr 10.3 21:18:45 10° SSE 21:27:51 15° SE 21:28:46 15° SE visible
14 Apr 10.0 23:25:46 10° SSW 23:48:49 26° SE 23:56:35 10° ESE visible
15 Apr 9.5 01:39:20 10° WSW 01:57:05 42° S 02:10:51 10° ESE visible
15 Apr 9.5 03:59:38 17° WSW 04:11:39 35° SSW 04:22:33 10° SE visible
15 Apr 10.0 22:24:07 10° SSW 22:38:32 27° SSE 22:52:51 10° E visible
16 Apr 9.6 00:35:54 10° SW 00:53:31 41° S 01:08:31 10° ESE visible
16 Apr 9.5 02:51:32 10° WSW 03:08:43 40° SSW 03:21:19 10° SE visible
16 Apr 9.7 05:09:58 10° W 05:22:07 24° SW 05:31:02 10° S visible
16 Apr 10.2 21:23:36 10° S 21:35:31 21° SE 21:48:02 10° E visible
16 Apr 9.7 23:33:07 10° SW 23:49:54 37° SSE 00:05:38 10° ESE visible
17 Apr 9.5 01:47:25 10° WSW 02:05:21 43° S 02:19:34 10° ESE visible
17 Apr 9.6 04:04:40 10° W 04:19:45 31° SSW 04:30:44 10° SSE visible
17 Apr 10.4 20:25:05 10° SSE 20:32:54 14° SE 20:41:14 10° ESE visible
17 Apr 9.9 22:31:04 10° SSW 22:46:24 33° SSE 23:02:07 10° E visible
18 Apr 9.6 00:43:50 10° WSW 01:01:43 43° S 01:17:16 10° ESE visible
18 Apr 9.6 02:59:55 10° WSW 03:16:52 38° SSW 03:29:43 10° SE visible
18 Apr 9.9 05:19:16 10° W 05:29:56 20° SW 05:38:17 10° S visible
18 Apr 10.0 21:29:54 10° SSW 21:43:13 27° SE 21:57:47 10° E visible
18 Apr 9.7 23:40:52 10° SW 23:57:59 41° SSE 00:14:26 10° ESE visible
19 Apr 9.6 01:55:41 10° WSW 02:13:32 42° S 02:28:04 10° SE visible
19 Apr 9.7 04:13:27 10° W 04:27:40 27° SW 04:38:32 10° SSE visible
19 Apr 10.2 20:29:55 10° S 20:40:26 20° SE 20:52:18 10° E visible
19 Apr 9.8 22:38:33 10° SW 22:54:20 37° SSE 23:11:02 10° ESE visible
20 Apr 9.6 00:52:01 10° WSW 01:09:53 44° S 01:25:51 10° ESE visible
20 Apr 9.7 03:08:28 10° W 03:24:53 34° SSW 03:37:48 10° SSE visible
20 Apr 9.9 21:36:59 10° SSW 21:50:59 32° SSE 22:06:56 10° E visible
20 Apr 9.6 23:48:55 10° SW 00:06:04 43° S 00:23:04 10° ESE visible
21 Apr 9.6 02:04:07 10° WSW 02:21:37 40° SSW 02:36:20 10° SE visible
21 Apr 9.9 04:22:36 10° W 04:35:25 23° SW 04:45:45 10° S visible
21 Apr 10.0 20:36:18 10° S 20:48:03 25° SE 21:02:01 10° E visible
21 Apr 9.7 22:46:26 10° SW 23:02:20 41° SSE 23:19:42 10° ESE visible
